KC8SWY-15 Weather Reports


time (UTC)temp
C
wind
direction
speed
KPH
gust
KPH
rain 1hr
cm
rain 24hr
cm
rain mn
cm
humidity
%
barometer
mb
20260906163019 22 91 8.0 20.9 0.00 0.00 0.00 64 1019.9
20260906162519 22 84 8.0 16.1 0.00 0.00 0.00 65 1019.9
20260906162019 22 159 8.0 22.5 0.00 0.00 0.00 66 1019.8
20260906161519 22 128 11.3 17.7 0.00 0.00 0.00 66 1019.9
20260906161019 21 93 8.0 22.5 0.00 0.00 0.00 67 1019.9
20260906160519 21 118 8.0 12.9 0.00 0.00 0.00 69 1019.8
20260906160019 21 121 8.0 17.7 0.00 0.00 0.00 68 1019.8
20260906155519 21 59 6.4 16.1 0.00 0.00 0.00 69 1019.9
20260906155019 21 67 8.0 16.1 0.00 0.00 0.00 71 1019.9
20260906154613 21 84 6.4 16.1 0.00 0.00 0.00 69 1019.9
20260906154519 21 84 6.4 16.1 0.00 0.00 0.00 69 1019.9
20260906154019 21 162 8.0 16.1 0.00 0.00 0.00 70 1019.9
20260906153519 21 78 8.0 14.5 0.00 0.00 0.00 71 1019.9
20260906153105 21 105 6.4 17.7 0.00 0.00 0.00 69 1020.0
20260906153019 21 105 6.4 17.7 0.00 0.00 0.00 69 1020.0
20260906152519 21 69 6.4 14.5 0.00 0.00 0.00 72 1019.9
20260906152019 21 106 6.4 16.1 0.00 0.00 0.00 72 1019.9
20260906151519 21 152 3.2 12.9 0.00 0.00 0.00 75 1019.9
20260906151019 21 114 3.2 9.7 0.00 0.00 0.00 77 1019.8
20260906150519 20 78 3.2 11.3 0.00 0.00 0.00 78 1019.7
20260906150019 20 96 6.4 9.7 0.00 0.00 0.00 80 1019.6
20260906145519 20 65 8.0 14.5 0.00 0.00 0.00 79 1019.6
20260906145019 20 73 6.4 16.1 0.00 0.00 0.00 80 1019.6
20260906144519 20 88 4.8 17.7 0.00 0.00 0.00 81 1019.6
20260906144019 20 103 6.4 16.1 0.00 0.00 0.00 82 1019.6
20260906143519 19 78 9.7 16.1 0.00 0.00 0.00 82 1019.6
20260906143019 19 142 9.7 17.7 0.00 0.00 0.00 82 1019.5
20260906142519 18 100 9.7 17.7 0.00 0.00 0.00 83 1019.5
20260906142019 18 100 8.0 17.7 0.00 0.00 0.00 82 1019.6
20260906141551 18 80 8.0 14.5 0.00 0.00 0.00 84 1019.6
20260906141519 18 80 8.0 14.5 0.00 0.00 0.00 84 1019.6
20260906141019 18 90 9.7 19.3 0.00 0.00 0.00 84 1019.6
20260906140519 18 84 6.4 17.7 0.00 0.00 0.00 83 1019.7
20260906140019 18 110 6.4 11.3 0.00 0.00 0.00 85 1019.8
20260906135519 18 93 4.8 14.5 0.00 0.00 0.00 85 1019.7
20260906135019 18 96 4.8 8.0 0.00 0.00 0.00 86 1019.8
20260906134519 18 61 6.4 11.3 0.00 0.00 0.00 87 1019.7
20260906134019 17 138 9.7 14.5 0.00 0.00 0.00 87 1019.7
20260906133520 17 100 9.7 16.1 0.00 0.00 0.00 87 1019.7
20260906133020 17 93 8.0 16.1 0.00 0.00 0.00 88 1019.6
20260906132520 17 83 4.8 11.3 0.00 0.00 0.00 88 1019.6
20260906132020 17 120 1.6 9.7 0.00 0.00 0.00 89 1019.6
20260906131551 16 102 1.6 4.8 0.00 0.00 0.00 90 1019.7
20260906131520 16 102 1.6 4.8 0.00 0.00 0.00 90 1019.7
20260906131020 16 89 0.0 4.8 0.00 0.00 0.00 91 1019.6
20260906130520 16 67 0.0 1.6 0.00 0.00 0.00 92 1019.6
20260906130020 16 27 0.0 3.2 0.00 0.00 0.00 92 1019.6
20260906125520 15 13 0.0 4.8 0.00 0.00 0.00 93 1019.5
20260906125020 15 55 0.0 0.0 0.00 0.00 0.00 94 1019.5
20260906124520 15 55 0.0 0.0 0.00 0.00 0.00 94 1019.4
20260906124020 15 55 0.0 0.0 0.00 0.00 0.00 95 1019.4
20260906123520 15 55 0.0 0.0 0.00 0.00 0.00 96 1019.4
20260906123020 14 55 0.0 0.0 0.00 0.00 0.00 96 1019.4
20260906122520 13 55 0.0 0.0 0.00 0.00 0.00 96 1019.4
20260906122020 13 55 0.0 0.0 0.00 0.00 0.00 95 1019.4
20260906121520 13 55 0.0 0.0 0.00 0.00 0.00 95 1019.3
20260906121020 13 55 0.0 0.0 0.00 0.00 0.00 95 1019.1
20260906120520 12 55 0.0 0.0 0.00 0.00 0.00 95 1019.0
20260906120020 12 55 0.0 0.0 0.00 0.00 0.00 95 1018.9
20260906115520 12 55 0.0 0.0 0.00 0.00 0.00 94 1018.9
20260906115020 12 55 0.0 0.0 0.00 0.00 0.00 94 1018.8
20260906114520 12 55 0.0 0.0 0.00 0.00 0.00 94 1018.7
20260906114020 12 55 0.0 0.0 0.00 0.00 0.00 94 1018.6
20260906113520 12 55 0.0 0.0 0.00 0.00 0.00 94 1018.7
20260906113020 12 55 0.0 0.0 0.00 0.00 0.00 94 1018.6
20260906112520 12 55 0.0 0.0 0.00 0.00 0.00 93 1018.5
20260906112020 12 55 0.0 0.0 0.00 0.00 0.00 93 1018.4
20260906111520 12 55 0.0 0.0 0.00 0.00 0.00 93 1018.5
20260906111020 12 55 0.0 0.0 0.00 0.00 0.00 93 1018.4
20260906110520 12 55 0.0 0.0 0.00 0.00 0.00 92 1018.4
20260906110020 13 55 0.0 0.0 0.00 0.00 0.00 92 1018.4
20260906105520 13 55 0.0 0.0 0.00 0.00 0.00 92 1018.4
20260906105020 13 55 0.0 0.0 0.00 0.00 0.00 92 1018.3
20260906104555 13 55 0.0 0.0 0.00 0.00 0.00 92 1018.2
20260906104520 13 55 0.0 0.0 0.00 0.00 0.00 92 1018.2
20260906104020 13 55 0.0 0.0 0.00 0.00 0.00 91 1018.1
20260906103520 13 55 0.0 1.6 0.00 0.00 0.00 91 1018.1
20260906103020 13 51 0.0 0.0 0.00 0.00 0.00 91 1018.0
20260906102520 13 51 0.0 0.0 0.00 0.00 0.00 91 1017.9
20260906102020 14 51 0.0 0.0 0.00 0.00 0.00 91 1017.8
20260906101610 14 51 0.0 0.0 0.00 0.00 0.00 90 1017.9
20260906101520 14 51 0.0 0.0 0.00 0.00 0.00 90 1017.9
20260906101020 14 54 0.0 0.0 0.00 0.00 0.00 90 1017.8
20260906100542 14 57 0.0 1.6 0.00 0.00 0.00 90 1017.8
20260906100020 14 54 0.0 4.8 0.00 0.00 0.00 90 1017.8
20260906095520 14 78 0.0 1.6 0.00 0.00 0.00 90 1017.8
20260906095020 15 48 0.0 0.0 0.00 0.00 0.00 89 1017.9
20260906094520 15 48 0.0 0.0 0.00 0.00 0.00 89 1018.0
20260906094020 15 48 0.0 0.0 0.00 0.00 0.00 89 1017.9
20260906093520 15 53 0.0 1.6 0.00 0.00 0.00 88 1017.8
20260906093053 15 39 0.0 0.0 0.00 0.00 0.00 88 1017.8
20260906093020 15 39 0.0 0.0 0.00 0.00 0.00 88 1017.8
20260906092520 15 39 0.0 4.8 0.00 0.00 0.00 89 1017.7
20260906092020 15 35 0.0 3.2 0.00 0.00 0.00 89 1017.7
20260906091635 15 101 0.0 3.2 0.00 0.00 0.00 89 1017.7
20260906091520 15 101 0.0 3.2 0.00 0.00 0.00 89 1017.7
20260906091020 15 80 0.0 4.8 0.00 0.00 0.00 89 1017.6
20260906090520 15 112 1.6 1.6 0.00 0.00 0.00 89 1017.5
20260906090141 15 9 1.6 8.0 0.00 0.00 0.00 89 1017.5
20260906090020 15 9 1.6 8.0 0.00 0.00 0.00 89 1017.5
20260906085520 15 0 0.0 1.6 0.00 0.00 0.00 89 1017.5
20260906085020 15 69 0.0 0.0 0.00 0.00 0.00 89 1017.5
20260906084520 16 34 0.0 0.0 0.00 0.00 0.00 89 1017.4
20260906084020 16 32 1.6 8.0 0.00 0.00 0.00 89 1017.3
20260906083520 16 51 0.0 3.2 0.00 0.00 0.00 89 1017.3
20260906083021 16 67 0.0 4.8 0.00 0.00 0.00 89 1017.2
20260906082520 16 36 0.0 3.2 0.00 0.00 0.00 89 1017.2
20260906082020 16 29 0.0 1.6 0.00 0.00 0.00 88 1017.2
20260906081601 16 5 0.0 4.8 0.00 0.00 0.00 88 1017.2
20260906081521 16 5 0.0 4.8 0.00 0.00 0.00 88 1017.2
20260906081021 16 84 0.0 3.2 0.00 0.00 0.00 87 1017.2
20260906080521 16 69 1.6 3.2 0.00 0.00 0.00 87 1017.3
20260906080104 16 44 1.6 6.4 0.00 0.03 0.00 87 1017.2
20260906080021 16 44 1.6 6.4 0.00 0.03 0.00 87 1017.2
20260906075521 16 85 0.0 6.4 0.00 0.03 0.00 87 1017.2
20260906075021 16 66 0.0 3.2 0.00 0.03 0.00 87 1017.3
20260906074521 16 43 0.0 3.2 0.00 0.03 0.00 87 1017.2
20260906074021 17 89 1.6 4.8 0.00 0.03 0.00 87 1017.1
20260906073521 17 86 1.6 6.4 0.00 0.03 0.00 87 1017.0
20260906073021 17 67 1.6 4.8 0.00 0.03 0.00 87 1017.0
20260906072521 17 80 0.0 6.4 0.00 0.03 0.00 87 1017.1
20260906072021 17 53 1.6 3.2 0.00 0.03 0.00 86 1017.1
20260906071556 17 60 1.6 6.4 0.00 0.03 0.00 86 1017.0
20260906071521 17 60 1.6 6.4 0.00 0.03 0.00 86 1017.0
20260906071021 17 89 1.6 4.8 0.00 0.03 0.00 86 1017.0
20260906070521 17 105 1.6 9.7 0.00 0.03 0.00 85 1017.1
20260906070021 17 147 1.6 4.8 0.00 0.03 0.00 85 1017.2
20260906065521 17 95 3.2 8.0 0.00 0.03 0.00 85 1017.1
20260906065021 17 108 3.2 8.0 0.00 0.03 0.00 84 1017.2
20260906064521 17 138 4.8 9.7 0.00 0.03 0.00 84 1017.1
20260906064021 17 133 3.2 9.7 0.00 0.03 0.00 84 1017.1
20260906063521 17 103 4.8 9.7 0.00 0.03 0.00 84 1017.2
20260906063323 17 141 4.8 9.7 0.00 0.03 0.00 84 1017.2
20260906063109 17 141 4.8 9.7 0.00 0.03 0.00 84 1017.2
20260906063021 17 141 4.8 9.7 0.00 0.03 0.00 84 1017.2
20260906062521 18 103 4.8 8.0 0.00 0.03 0.00 84 1017.1
20260906062021 18 137 6.4 11.3 0.00 0.03 0.00 84 1017.1
20260906061521 18 130 4.8 11.3 0.00 0.03 0.00 84 1016.9
20260906061021 18 98 4.8 8.0 0.00 0.03 0.00 84 1017.1
20260906060521 18 103 6.4 11.3 0.00 0.03 0.00 84 1017.0
20260906060021 18 104 6.4 14.5 0.00 1.30 0.00 84 1017.1
20260906055521 18 132 6.4 11.3 0.00 1.30 0.00 84 1017.0
20260906055021 18 88 6.4 11.3 0.00 1.30 0.00 84 1017.0
20260906054554 18 117 6.4 14.5 0.00 1.30 0.00 84 1016.9
20260906054521 18 117 6.4 14.5 0.00 1.30 0.00 84 1016.9
20260906054021 18 136 6.4 16.1 0.00 1.30 0.00 84 1016.8
20260906053521 18 98 6.4 14.5 0.00 1.30 0.00 83 1016.8
20260906053021 18 151 8.0 16.1 0.00 1.30 0.00 84 1016.7
20260906052521 18 142 8.0 17.7 0.00 1.30 0.00 84 1016.6
20260906052021 18 69 8.0 16.1 0.00 1.30 0.00 84 1016.6
20260906051554 18 119 8.0 16.1 0.00 1.30 0.00 84 1016.6
20260906051521 18 119 8.0 16.1 0.00 1.30 0.00 84 1016.6
20260906051021 18 113 6.4 16.1 0.00 1.30 0.00 84 1016.5
20260906050521 18 126 6.4 16.1 0.00 1.30 0.00 83 1016.6
20260906050021 18 107 8.0 14.5 0.00 1.78 0.00 83 1016.6
20260906045521 19 115 8.0 19.3 0.00 1.78 0.00 83 1016.6
20260906045021 19 109 8.0 14.5 0.00 1.78 0.00 83 1016.5
20260906044621 19 59 9.7 20.9 0.00 1.78 0.00 83 1016.3
20260906044521 19 59 9.7 20.9 0.00 1.78 0.00 83 1016.3
20260906044021 19 105 9.7 20.9 0.00 1.78 0.00 83 1016.3
20260906043521 19 111 8.0 17.7 0.00 1.78 0.00 84 1016.2
20260906043021 19 71 6.4 17.7 0.00 1.78 0.00 84 1016.2
20260906042521 19 147 6.4 16.1 0.00 1.78 0.00 85 1016.3
20260906042021 19 88 6.4 12.9 0.00 1.78 0.00 85 1016.4
20260906041521 19 88 8.0 17.7 0.00 1.78 0.00 85 1016.2
20260906041021 19 121 8.0 12.9 0.00 1.78 0.00 85 1016.3
20260906040521 19 87 6.4 12.9 0.00 1.78 0.00 86 1016.3
20260906040021 19 105 4.8 8.0 0.00 3.23 0.00 86 1016.2
20260906035521 19 121 4.8 9.7 0.00 3.23 0.00 86 1016.3
20260906035021 19 115 4.8 9.7 0.00 3.23 0.00 87 1016.1
20260906034521 19 90 4.8 8.0 0.00 3.23 0.00 87 1016.2
20260906034021 19 105 4.8 8.0 0.00 3.23 0.00 87 1016.2
20260906033521 19 90 6.4 9.7 0.00 3.23 0.00 87 1016.2
20260906033126 19 76 4.8 9.7 0.00 3.23 0.00 87 1016.1
20260906033021 19 76 4.8 9.7 0.00 3.23 0.00 87 1016.1
20260906032521 19 84 4.8 8.0 0.00 3.23 0.00 87 1016.2
20260906032021 19 86 4.8 11.3 0.00 3.23 0.00 88 1016.1
20260906031556 19 76 3.2 8.0 0.00 3.23 0.00 89 1016.1
20260906031521 19 76 3.2 8.0 0.00 3.23 0.00 89 1016.1
20260906031021 19 74 3.2 8.0 0.00 3.23 0.00 89 1016.1
20260906030521 19 82 1.6 9.7 0.00 3.23 0.00 91 1016.1
20260906030021 19 83 3.2 8.0 0.00 3.23 0.00 92 1016.1
20260906025521 19 71 3.2 11.3 0.00 3.23 0.00 93 1016.0
20260906025021 19 51 1.6 9.7 0.00 3.23 0.00 94 1015.9
20260906024558 19 24 1.6 6.4 0.00 3.23 0.00 94 1015.9
20260906024522 19 24 1.6 6.4 0.00 3.23 0.00 94 1015.9
20260906024022 19 84 1.6 4.8 0.00 3.23 0.00 94 1015.8
20260906023522 19 86 0.0 6.4 0.00 3.23 0.00 95 1015.6
20260906023022 19 71 0.0 1.6 0.00 3.23 0.00 94 1015.5
20260906022522 19 55 0.0 3.2 0.00 3.23 0.00 94 1015.4
20260906022022 19 42 0.0 0.0 0.00 3.23 0.00 94 1015.3
20260906021522 19 84 0.0 0.0 0.00 3.23 0.00 94 1015.4
20260906021022 19 84 0.0 0.0 0.00 3.23 0.00 94 1015.5
20260906020522 19 84 0.0 0.0 0.00 3.23 0.00 94 1015.5
20260906020022 19 84 0.0 0.0 0.00 3.23 0.00 94 1015.5
20260906015522 20 84 0.0 0.0 0.00 3.23 0.00 94 1015.5
20260906015022 20 84 0.0 0.0 0.00 3.23 0.00 93 1015.4
20260906014522 20 84 0.0 0.0 0.00 3.23 0.00 93 1015.4
20260906014022 20 84 0.0 0.0 0.00 3.23 0.00 93 1015.3
20260906013522 20 84 0.0 0.0 0.00 3.23 0.00 93 1015.3
20260906013022 20 84 0.0 0.0 0.00 3.23 0.00 93 1015.2
20260906012522 20 84 0.0 0.0 0.00 3.23 0.00 93 1015.2
20260906012022 20 84 0.0 0.0 0.00 3.23 0.00 93 1015.1
20260906011522 20 84 0.0 0.0 0.00 3.23 0.00 92 1015.1
20260906011022 20 84 0.0 0.0 0.00 3.23 0.00 92 1015.0
20260906010524 21 84 0.0 0.0 0.00 3.23 0.00 92 1015.0
20260906010022 21 84 0.0 0.0 0.00 3.23 0.00 92 1014.9
20260906005522 21 84 0.0 0.0 0.00 3.23 0.00 92 1014.8
20260906005022 21 84 0.0 0.0 0.00 3.23 0.00 92 1014.7
20260906004522 21 84 0.0 0.0 0.00 3.23 0.00 91 1014.8
20260906004022 21 84 0.0 0.0 0.00 3.23 0.00 91 1014.8
20260906003522 21 84 0.0 0.0 0.00 3.23 0.00 91 1014.8
20260906003106 21 84 0.0 0.0 0.00 3.23 0.00 91 1014.7
20260906003022 21 84 0.0 0.0 0.00 3.23 0.00 91 1014.7
20260906002522 21 84 0.0 3.2 0.00 3.23 0.00 90 1014.6
20260906002022 22 84 0.0 0.0 0.00 3.23 0.00 90 1014.6
20260906001621 22 84 0.0 0.0 0.00 3.23 0.00 89 1014.7
20260906001522 22 84 0.0 0.0 0.00 3.23 0.00 89 1014.7
20260906001022 22 84 0.0 0.0 0.00 3.23 0.00 89 1014.7
20260906000522 22 84 0.0 0.0 0.00 3.23 0.00 88 1014.7
20260906000022 22 84 0.0 0.0 0.00 3.23 0.00 88 1014.5
20260905235522 22 84 0.0 1.6 0.00 3.23 0.00 88 1014.6
20260905235022 22 84 1.6 1.6 0.00 3.23 3.23 88 1014.5
20260905234522 22 94 1.6 6.4 0.00 3.23 3.23 88 1014.5
20260905234022 22 69 0.0 1.6 0.00 3.23 3.23 88 1014.6
20260905233522 22 83 0.0 3.2 0.00 3.23 3.23 87 1014.6
20260905233022 22 102 1.6 4.8 0.00 3.23 3.23 87 1014.6
20260905232522 22 61 0.0 3.2 0.00 3.23 3.23 88 1014.6
20260905232022 22 77 1.6 3.2 0.00 3.23 3.23 88 1014.6
20260905231522 22 46 1.6 4.8 0.00 3.23 3.23 88 1014.6
20260905231022 22 67 1.6 6.4 0.00 3.23 3.23 88 1014.6
20260905230522 22 86 0.0 3.2 0.00 3.23 3.23 88 1014.6
20260905230022 22 65 1.6 3.2 0.00 3.23 3.23 88 1014.5
20260905225522 22 99 3.2 8.0 0.00 3.23 3.23 88 1014.3
20260905225022 22 111 6.4 8.0 0.00 3.23 3.23 87 1014.2
20260905224522 22 100 6.4 11.3 0.00 3.23 3.23 87 1014.2
20260905224022 22 118 8.0 9.7 0.00 3.23 3.23 87 1014.1
20260905223522 22 130 8.0 17.7 0.00 3.23 3.23 87 1014.1
20260905223022 22 80 6.4 19.3 0.00 3.23 3.23 87 1014.0
20260905222522 22 45 8.0 16.1 0.00 3.23 3.23 86 1014.1
20260905222022 22 103 4.8 12.9 0.00 3.23 3.23 87 1014.0
20260905221522 22 103 4.8 9.7 0.00 3.23 3.23 87 1014.0
20260905221022 22 127 6.4 16.1 0.00 3.23 3.23 87 1014.0
20260905220522 22 105 8.0 19.3 0.00 3.23 3.23 87 1014.0
20260905220022 22 96 6.4 16.1 0.00 3.23 3.23 87 1014.0
20260905215522 22 103 6.4 17.7 0.00 3.23 3.23 87 1014.0
20260905215022 22 92 9.7 11.3 0.00 3.23 3.23 88 1013.8
20260905214523 22 90 11.3 20.9 0.00 3.23 3.23 87 1013.9
20260905214022 22 136 11.3 19.3 0.00 3.23 3.23 87 1013.9
20260905213522 22 69 8.0 22.5 0.00 3.23 3.23 87 1013.8
20260905213023 22 63 6.4 11.3 0.00 3.23 3.23 87 1013.8
20260905212523 22 76 6.4 14.5 0.00 3.23 3.23 87 1013.8
20260905212023 22 88 8.0 19.3 0.00 3.23 3.23 86 1013.8
20260905211523 22 84 8.0 16.1 0.00 3.23 3.23 86 1013.7
20260905211023 22 79 8.0 17.7 0.00 3.23 3.23 86 1013.7
20260905210523 22 49 8.0 16.1 0.00 3.23 3.23 86 1013.6
20260905210112 22 69 6.4 16.1 0.00 3.23 3.23 87 1013.6
20260905210023 22 69 6.4 16.1 0.00 3.23 3.23 87 1013.6
20260905205523 22 101 6.4 14.5 0.00 3.23 3.23 87 1013.6
20260905205023 22 67 6.4 16.1 0.00 3.23 3.23 87 1013.6
20260905204523 22 61 6.4 12.9 0.00 3.23 3.23 87 1013.6
20260905204023 22 38 8.0 11.3 0.00 3.23 3.23 87 1013.7
20260905203523 22 65 6.4 19.3 0.00 3.23 3.23 87 1013.7
20260905203023 23 78 3.2 14.5 0.00 3.23 3.23 87 1013.7
20260905202523 23 115 3.2 6.4 0.00 3.23 3.23 88 1013.8
20260905202023 23 74 1.6 11.3 0.00 3.23 3.23 88 1013.8
20260905201523 23 62 3.2 6.4 0.00 3.23 3.23 87 1013.8
20260905201023 23 48 3.2 9.7 0.00 3.23 3.23 87 1013.7
20260905200523 23 31 1.6 9.7 0.00 3.23 3.23 87 1013.7
20260905200023 23 17 1.6 11.3 0.00 3.23 3.23 87 1013.8
20260905195523 23 92 1.6 6.4 0.00 3.23 3.23 87 1013.6
20260905195023 23 58 1.6 4.8 0.00 3.23 3.23 88 1013.6
20260905194705 23 82 3.2 6.4 0.00 3.23 3.23 87 1013.6
20260905194523 23 82 3.2 6.4 0.00 3.23 3.23 87 1013.6
20260905194023 23 40 3.2 9.7 0.00 3.23 3.23 87 1013.8
20260905193523 23 81 1.6 8.0 0.00 3.23 3.23 87 1013.8
20260905193023 23 40 1.6 8.0 0.00 3.23 3.23 88 1013.8
20260905192523 23 316 1.6 4.8 0.00 3.23 3.23 87 1013.8
20260905192023 23 56 1.6 6.4 0.00 3.23 3.23 87 1013.8
20260905191523 23 329 3.2 8.0 0.00 3.23 3.23 87 1013.8
20260905191023 23 73 3.2 11.3 0.00 3.23 3.23 87 1013.8
20260905190523 23 88 3.2 11.3 0.00 3.23 3.23 87 1013.8
20260905190023 23 17 4.8 11.3 0.00 3.23 3.23 87 1013.9
20260905185523 24 37 3.2 11.3 0.00 3.23 3.23 86 1014.0
20260905185023 24 44 3.2 8.0 0.00 3.23 3.23 87 1014.0
20260905184523 24 42 3.2 16.1 0.00 3.23 3.23 86 1013.9
20260905184023 24 31 3.2 9.7 0.00 3.23 3.23 87 1013.8
20260905183523 24 106 1.6 6.4 0.00 3.23 3.23 87 1013.8
20260905183023 24 106 3.2 9.7 0.00 3.23 3.23 87 1013.8
20260905182523 24 19 3.2 11.3 0.00 3.23 3.23 86 1013.7
20260905182023 24 22 4.8 11.3 0.00 3.23 3.23 86 1013.8
20260905181523 24 52 4.8 11.3 0.00 3.23 3.23 86 1013.8
20260905181023 24 55 3.2 9.7 0.00 3.23 3.23 86 1013.9
20260905180523 24 90 3.2 9.7 0.00 3.23 3.23 85 1013.8
20260905180023 25 51 1.6 9.7 0.00 3.23 3.23 85 1013.8
20260905175523 25 305 1.6 6.4 0.00 3.23 3.23 84 1013.9
20260905175023 25 30 1.6 8.0 0.00 3.23 3.23 84 1013.9
20260905174523 25 90 3.2 6.4 0.00 3.23 3.23 82 1013.8
20260905174023 25 51 3.2 8.0 0.00 3.23 3.23 84 1013.9
20260905173523 24 69 3.2 9.7 0.00 3.23 3.23 83 1013.9
20260905173023 24 148 3.2 8.0 0.00 3.23 3.23 83 1013.9
20260905172523 24 85 3.2 8.0 0.00 3.23 3.23 84 1014.0
20260905172023 24 117 3.2 6.4 0.00 3.23 3.23 85 1014.0
20260905171523 24 132 3.2 11.3 0.00 3.23 3.23 84 1014.1
20260905171023 24 143 1.6 9.7 0.00 3.23 3.23 84 1014.2
20260905170523 24 227 1.6 4.8 0.00 3.23 3.23 85 1014.3
20260905170023 24 146 3.2 8.0 0.00 3.28 3.23 84 1014.3
20260905165523 24 144 3.2 9.7 0.00 3.28 3.23 85 1014.3
20260905165023 23 155 3.2 9.7 0.00 3.28 3.23 86 1014.3
20260905164523 23 128 4.8 8.0 0.00 3.28 3.23 85 1014.2
20260905164023 23 86 4.8 9.7 0.00 3.28 3.23 86 1014.2
20260905163524 23 94 3.2 9.7 0.00 3.28 3.23 87 1014.2